Miscellaneous Local Product
Issued by NWS Hastings, NE

Home | Current Version | Previous Version | Graphics & Text | Print | Product List | Glossary On
Versions: 1 2 3 4 5 6 7 8 9 10 11 12 13 14 15 16 17 18 19 20 21 22 23 24 25 26 27 28 29 30 31 32 33 34 35 36 37 38 39 40 41 42 43 44 45 46 47 48 49 50
310
AXUS43 KGID 111402
MISGRI

GID CWA HOURLY WEATHER ROUNDUP
NATIONAL WEATHER SERVICE HASTINGS NE
800 AM CST THU FEB 11 2016

NOTE: "FAIR" INDICATES FEW OR NO CLOUDS BELOW 12,000 FEET WITH NO
SIGNIFICANT WEATHER AND/OR OBSTRUCTIONS TO VISIBILITY.

...SOUTH CENTRAL NEBRASKA...

CITY           SKY/WX    TMP DP  RH WIND       PRES   REMARKS
GRAND ISLAND   CLOUDY    24  21  88 SE6       30.23R FOG     WCI  17
HASTINGS       CLOUDY    26  22  84 E6        30.21R WCI  19
KEARNEY        CLOUDY    28  25  86 E5        30.20R WCI  23
ORD            CLOUDY    26  24  92 SE6       30.18R WCI  19
YORK           CLOUDY    21  19  93 E7        30.25R WCI  13
AURORA         CLOUDY    23  22  94 E9        30.22R FOG     WCI  13
LEXINGTON      CLOUDY    30  28  90 SE5       30.18R WCI  25
HOLDREGE       CLOUDY    28  26  91 CALM      30.18S
HEBRON         CLOUDY    22  20  90 NE8       30.25S WCI  13

...NEBRASKA PANHANDLE...

CITY           SKY/WX    TMP DP  RH WIND       PRES   REMARKS
CHADRON        PTCLDY    30  26  85 W6        30.03F WCI  24
ALLIANCE       CLOUDY    33  27  78 W9        30.03F WCI  25
SCOTTSBLUFF    PTCLDY    36  26  67 NW7       30.06F WCI  30
SIDNEY         CLOUDY    39  26  59 W14       30.09S WCI  31

...WESTERN AND NORTH CENTRAL NEBRASKA...

CITY           SKY/WX    TMP DP  RH WIND       PRES   REMARKS
VALENTINE      CLOUDY    29  27  92 SE7       30.09F FOG     WCI  22
AINSWORTH      CLOUDY    28  26  91 S6        30.10S WCI  21
ONEILL         CLOUDY    24  23  95 SE6       30.17S WCI  17
BROKEN BOW     CLOUDY    30  28  92 SE5       30.14S WCI  25
IMPERIAL       PTCLDY    25  21  85 CALM      30.12F
NORTH PLATTE   CLOUDY    26  25  96 S6        30.13S FOG     WCI  19
MCCOOK         FOG       22  21  96 SE6       30.17S VSB 1/4 WCI  14

...EASTERN NEBRASKA...

CITY           SKY/WX    TMP DP  RH WIND       PRES   REMARKS
NORFOLK        CLOUDY    19  14  81 SE7       30.23S WCI  10
SO SIOUX CITY  CLOUDY    17   9  70 SE7       30.30S WCI   8
TEKAMAH        CLOUDY    16   5  62 E6        30.31F WCI   7
COLUMBUS       CLOUDY    18   9  68 E9        30.26S WCI   6
ALBION         CLOUDY    22  19  89 SE8       30.20F FOG     WCI  12
OMAHA EPPLEY   CLOUDY    15   3  59 E5        30.33R WCI   8
OFFUTT AFB     CLOUDY    15   6  65 NE6       30.31R WCI   7
MILLARD        CLOUDY    17   5  58 E3        30.30S
LINCOLN        CLOUDY    19  14  81 NE8       30.30R WCI   9
NEBRASKA CITY  CLOUDY    18  14  86 NE8       30.30R WCI   7
BEATRICE       CLOUDY    20  19  95 NE3       30.28R FOG
FALLS CITY     CLOUDY    20  16  84 N10       30.30R WCI   9

...NORTHERN KANSAS...

CITY           SKY/WX    TMP DP  RH WIND       PRES   REMARKS
GOODLAND       CLOUDY    29  22  75 W7        30.14F WCI  22
HILL CITY      CLOUDY    26  25  96 CALM      30.22S FOG
NORTON         CLOUDY    28  25  86 SE5       30.19S FOG     WCI  23
PHILLIPSBURG   CLOUDY    30  27  86 CALM      30.23S
SMITH CENTER   CLOUDY    27  25  93 CALM      30.25R
BELOIT         CLOUDY    21  19  93 CALM      30.25S
HAYS           CLOUDY    28  18  64 NE8       30.22F WCI  20
RUSSELL        CLEAR     26  24  92 N10       30.23R WCI  16
CONCORDIA      CLOUDY    23  20  88 E8        30.24R FOG     WCI  14
SALINA         CLOUDY    28  23  81 NE9       30.26R WCI  19
TOPEKA         CLOUDY    23  18  81 N7        30.29R WCI  15



USA.gov is the U.S. government's official web portal to all federal, state and local government web resources and services.